CMA-CGM Fort Saint Pierre — FQFM — position and weather

sailwx.info

Track history (hours):
 
Tides and Currents Weather Stations Pressure Air Temp Water Temp Dewpoint Dewpoint Depression Visibility Wind Speed Wind Dir Waves Ship Positions

CMA-CGM Fort Saint Pierre

Last reported at 2016-Aug-06 22:19 UTC. Time now 2016-Aug-24 13:47 UTC.
Position N 39°07' W 031°17'.
Warning: this ship's position is 17 days out of date.

Length 197 m; beam 30 m.

Type: Ship (hazmat cat A). MMSI: 226328000.

Date/timePositionNaut miles runAvg speedWind from/ knotsBaromVisibWave heightAir tempDewpointWater temp
2016-Aug-06 22:19N 39°07' W 031°17'1418.2
2016-Aug-06 21:33N 39°12' W 030°60'2318.3
2016-Aug-06 20:16N 39°21' W 030°32'1318.3
2016-Aug-06 19:33N 39°27' W 030°17'1818.1
2016-Aug-06 18:34N 39°34' W 029°56'1717.4
2016-Aug-06 17:33N 39°41' W 029°35'1817.6
2016-Aug-06 16:33N 39°49' W 029°14'1717.2
2016-Aug-06 15:33N 39°56' W 028°54'1717.3
2016-Aug-06 14:33N 40°03' W 028°33'2517.6
2016-Aug-06 13:08N 40°13' W 028°03'1117.5
2016-Aug-06 12:29N 40°17' W 027°50'1817.1
2016-Aug-06 11:28N 40°24' W 027°28'1617.2
2016-Aug-06 10:33N 40°31' W 027°10'1817.4
2016-Aug-06 09:32N 40°38' W 026°48'1817.9
2016-Aug-06 08:33N 40°45' W 026°27'7117.8
2016-Aug-06 04:33N 41°14' W 025°01'1817.9
2016-Aug-06 03:33N 41°22' W 024°39'1817.7
2016-Aug-06 02:33N 41°29' W 024°17'1917.9
2016-Aug-06 01:28N 41°37' W 023°54'  
2016-Aug-03 16:33N 49°41' W 003°57'1313.5
2016-Aug-03 15:34N 49°47' W 003°39'1413.8
2016-Aug-03 14:33N 49°53' W 003°20'1413.9
2016-Aug-03 13:34N 49°58' W 002°59'1514.3
2016-Aug-03 12:31N 50°01' W 002°37'5513.5
2016-Aug-03 08:27N 49°51' W 001°13'1213.0
2016-Aug-03 07:33N 49°46' W 000°57'1414.0
2016-Aug-03 06:34N 49°40' W 000°37'2914.7
2016-Aug-03 04:34N 49°29' E 000°05'4 3.5
2016-Aug-03 03:33N 49°27' E 000°10'0 0.0
2016-Aug-03 02:33N 49°27' E 000°10'0 0.0
2016-Aug-03 01:33N 49°27' E 000°10'0 0.0
2016-Aug-03 00:33N 49°27' E 000°10'0 0.0
2016-Aug-02 23:33N 49°27' E 000°10'0 0.0
2016-Aug-02 22:30N 49°27' E 000°10'0 0.0
2016-Aug-02 21:33N 49°27' E 000°10'0 0.0
2016-Aug-02 20:33N 49°27' E 000°10'0 0.0
2016-Aug-02 19:33N 49°27' E 000°10'0 0.0
2016-Aug-02 18:33N 49°27' E 000°10'0 0.0
2016-Aug-02 17:33N 49°27' E 000°10'0 0.0
2016-Aug-02 16:33N 49°27' E 000°10'0 0.0
2016-Aug-02 15:33N 49°27' E 000°10'2 2.5
2016-Aug-02 14:33N 49°28' E 000°06'1312.5
2016-Aug-02 13:33N 49°33' W 000°11'2 2.2
2016-Aug-02 12:33N 49°35' W 000°13'1 0.9
2016-Aug-02 11:33N 49°34' W 000°14'1615.7
2016-Aug-02 10:33N 49°50' W 000°12'1919.4
2016-Aug-02 09:33N 50°09' W 000°12'1817.9
2016-Aug-02 08:33N 50°26' W 000°03'1818.2
2016-Aug-02 07:33N 50°32' E 000°24'2418.2
2016-Aug-02 06:14N 50°45' E 000°56'3219.3
2016-Aug-02 04:34N 51°06' E 001°35'2019.5
2016-Aug-02 03:34N 51°22' E 001°54'10 9.5
2016-Aug-02 02:33N 51°24' E 002°09'1616.2
2016-Aug-02 01:34N 51°23' E 002°35'1514.8
2016-Aug-02 00:33N 51°23' E 002°59'1615.8
2016-Aug-01 23:33N 51°25' E 003°24'1211.7
2016-Aug-01 22:34N 51°24' E 003°43'9 9.3
2016-Aug-01 21:33N 51°25' E 003°58'8 7.8
2016-Aug-01 20:33N 51°23' E 004°10'7 6.4
2016-Aug-01 19:30N 51°17' E 004°16'0 0.0
2016-Aug-01 18:33N 51°17' E 004°16'0 0.0
2016-Aug-01 17:30N 51°17' E 004°16'0 0.0
2016-Aug-01 16:27N 51°17' E 004°16'0 0.0
2016-Aug-01 15:30N 51°17' E 004°16'0 0.0
2016-Aug-01 14:33N 51°17' E 004°16'0 0.0
2016-Aug-01 13:33N 51°17' E 004°16'0 0.0
2016-Aug-01 12:33N 51°17' E 004°16'0 0.0
2016-Aug-01 11:33N 51°17' E 004°16'0 0.0
2016-Aug-01 10:30N 51°17' E 004°16'0 0.0
2016-Aug-01 09:30N 51°17' E 004°16'4 4.3
2016-Aug-01 08:34N 51°21' E 004°14'1110.8
2016-Aug-01 07:34N 51°25' E 003°58'2010.0
2016-Aug-01 05:34N 51°25' E 003°26'1413.6
2016-Aug-01 04:33N 51°24' E 003°04'1313.4
2016-Aug-01 03:33N 51°37' E 003°10'1110.9
2016-Aug-01 02:33N 51°48' E 003°11'2 1.8
2016-Aug-01 01:34N 51°50' E 003°09'0 0.4
2016-Aug-01 00:33N 51°50' E 003°09'1 1.4
2016-Jul-31 23:34N 51°49' E 003°08'1 1.3
2016-Jul-31 22:32N 51°48' E 003°10'1 1.1
2016-Jul-31 21:34N 51°47' E 003°10'1 0.8
2016-Jul-31 20:33N 51°48' E 003°09'7114.2
2016-Jul-31 15:32N 52°53' E 003°54'5317.7
2016-Jul-31 12:33N 53°32' E 004°53'1918.6
2016-Jul-31 11:33N 53°38' E 005°23'1918.9
2016-Jul-31 10:34N 53°45' E 005°52'1918.8
2016-Jul-31 09:34N 53°50' E 006°22'1818.1
2016-Jul-31 08:33N 53°55' E 006°52'1817.6
2016-Jul-31 07:33N 53°59' E 007°22'1717.0
2016-Jul-31 06:33N 54°02' E 007°50'1615.4
2016-Jul-31 05:33N 54°00' E 008°16'1616.3
2016-Jul-31 04:33N 53°54' E 008°42'1616.0
2016-Jul-31 03:33N 53°53' E 009°09'1414.2
2016-Jul-31 02:34N 53°44' E 009°27'1313.5
2016-Jul-31 01:34N 53°34' E 009°43'7 7.2
2016-Jul-31 00:32N 53°32' E 009°55'0 0.0
2016-Jul-30 22:32N 53°32' E 009°55'0 0.0
2016-Jul-30 21:32N 53°32' E 009°55'0 0.0
2016-Jul-30 20:32N 53°32' E 009°55'0 0.0
2016-Jul-30 19:32N 53°32' E 009°55'0 0.0
2016-Jul-30 18:32N 53°32' E 009°55'0 0.0
2016-Jul-30 17:32N 53°32' E 009°55'0 0.0
2016-Jul-30 16:32N 53°32' E 009°55'0 0.0
2016-Jul-30 15:32N 53°32' E 009°55'0 0.0
2016-Jul-30 14:32N 53°32' E 009°55'0 0.0
2016-Jul-30 13:32N 53°32' E 009°55'0 0.0
2016-Jul-30 12:32N 53°32' E 009°55'0 0.0
2016-Jul-30 11:32N 53°32' E 009°55'0 0.0
2016-Jul-30 10:32N 53°32' E 009°55'0 0.0
2016-Jul-30 09:32N 53°32' E 009°55'0 0.0
2016-Jul-30 08:32N 53°32' E 009°55'0 0.0
2016-Jul-30 07:32N 53°32' E 009°55'0 0.0
2016-Jul-30 06:32N 53°32' E 009°55'0 0.0
2016-Jul-30 05:32N 53°32' E 009°55'0 0.0
2016-Jul-30 04:32N 53°32' E 009°55'1 0.7
2016-Jul-30 03:33N 53°32' E 009°54'8 8.0
2016-Jul-30 02:34N 53°34' E 009°41'1111.5
2016-Jul-30 01:34N 53°43' E 009°28'1312.6
2016-Jul-30 00:33N 53°53' E 009°15'1212.1
2016-Jul-29 23:33N 53°51' E 008°55'1312.5
2016-Jul-29 22:30N 53°58' E 008°36'1414.9
2016-Jul-29 21:33N 53°60' E 008°12'1313.1
2016-Jul-29 20:33N 53°57' E 007°50'1615.9
2016-Jul-29 19:34N 53°53' E 007°24'1615.9
2016-Jul-29 18:33N 53°49' E 006°58'1615.9
2016-Jul-29 17:33N 53°46' E 006°32'1616.0
2016-Jul-29 16:33N 53°42' E 006°06'1616.3
2016-Jul-29 15:33N 53°37' E 005°39'2019.9
2016-Jul-29 14:34N 53°30' E 005°08'1919.4
2016-Jul-29 13:33N 53°19' E 004°41'2020.1
2016-Jul-29 12:33N 53°02' E 004°25'2019.9
2016-Jul-29 11:33N 52°45' E 004°08'1919.3
2016-Jul-29 10:34N 52°27' E 003°54'1918.7
2016-Jul-29 09:34N 52°09' E 003°55'1212.4
2016-Jul-29 08:33N 51°59' E 004°07'10 9.8
2016-Jul-29 07:33N 51°54' E 004°20'4 3.5
2016-Jul-29 06:32N 51°54' E 004°26'0 0.0
2016-Jul-29 05:32N 51°54' E 004°26'0 0.0
2016-Jul-29 04:32N 51°54' E 004°26'0 0.0
2016-Jul-29 03:32N 51°54' E 004°26'0 0.0
2016-Jul-29 02:32N 51°54' E 004°26'0 0.0
2016-Jul-29 01:32N 51°54' E 004°26'0 0.0
2016-Jul-29 00:32N 51°54' E 004°26'0 0.0
2016-Jul-28 23:32N 51°54' E 004°26'0 0.0
2016-Jul-28 22:32N 51°54' E 004°26'0 0.0
2016-Jul-28 21:32N 51°54' E 004°26'0 0.0
2016-Jul-28 20:31N 51°54' E 004°26'0 0.0
2016-Jul-28 19:31N 51°54' E 004°26'0 0.0
2016-Jul-28 18:31N 51°54' E 004°26'0 0.0
2016-Jul-28 17:31N 51°54' E 004°26'0 0.0
2016-Jul-28 16:31N 51°54' E 004°26'0 0.0
2016-Jul-28 15:31N 51°54' E 004°26'0 0.0
2016-Jul-28 14:31N 51°54' E 004°26'0 0.0
2016-Jul-28 13:31N 51°54' E 004°26'0 0.0
2016-Jul-28 12:31N 51°54' E 004°26'0 0.0
2016-Jul-28 11:31N 51°54' E 004°26'0 0.0
2016-Jul-28 10:31N 51°54' E 004°26'0 0.0
2016-Jul-28 09:31N 51°54' E 004°26'0 0.0
2016-Jul-28 08:31N 51°54' E 004°26'0 0.0
2016-Jul-28 07:28N 51°54' E 004°26'0 0.0
2016-Jul-28 06:31N 51°54' E 004°26'0 0.0
2016-Jul-28 05:31N 51°54' E 004°26'0 0.0
2016-Jul-28 04:31N 51°54' E 004°26'1 1.2
2016-Jul-28 03:34N 51°54' E 004°24'8 8.0
2016-Jul-28 02:34N 51°56' E 004°12'9 9.3
2016-Jul-28 01:34N 52°00' E 003°58'10 9.7
2016-Jul-28 00:34N 51°58' E 003°43'1110.5
2016-Jul-27 23:33N 51°56' E 003°26'1110.4
2016-Jul-27 22:30N 51°52' E 003°09'  
Track history (hours):
 
Tides and Currents Weather Stations Pressure Air Temp Water Temp Dewpoint Dewpoint Depression Visibility Wind Speed Wind Dir Waves Ship Positions

CMA-CGM Fort Saint Pierre

Last reported at 2016-Aug-06 22:19 UTC. Time now 2016-Aug-24 13:47 UTC.
Position N 39°07' W 031°17'.
Warning: this ship's position is 17 days out of date.

Length 197 m; beam 30 m.

Type: Ship (hazmat cat A). MMSI: 226328000.

Date/timePositionNaut miles runAvg speedWind from/ knotsBaromVisibWave heightAir tempDewpointWater temp
2016-Aug-06 22:19N 39°07' W 031°17'1418.2
2016-Aug-06 21:33N 39°12' W 030°60'2318.3
2016-Aug-06 20:16N 39°21' W 030°32'1318.3
2016-Aug-06 19:33N 39°27' W 030°17'1818.1
2016-Aug-06 18:34N 39°34' W 029°56'1717.4
2016-Aug-06 17:33N 39°41' W 029°35'1817.6
2016-Aug-06 16:33N 39°49' W 029°14'1717.2
2016-Aug-06 15:33N 39°56' W 028°54'1717.3
2016-Aug-06 14:33N 40°03' W 028°33'2517.6
2016-Aug-06 13:08N 40°13' W 028°03'1117.5
2016-Aug-06 12:29N 40°17' W 027°50'1817.1
2016-Aug-06 11:28N 40°24' W 027°28'1617.2
2016-Aug-06 10:33N 40°31' W 027°10'1817.4
2016-Aug-06 09:32N 40°38' W 026°48'1817.9
2016-Aug-06 08:33N 40°45' W 026°27'7117.8
2016-Aug-06 04:33N 41°14' W 025°01'1817.9
2016-Aug-06 03:33N 41°22' W 024°39'1817.7
2016-Aug-06 02:33N 41°29' W 024°17'1917.9
2016-Aug-06 01:28N 41°37' W 023°54'  
2016-Aug-03 16:33N 49°41' W 003°57'1313.5
2016-Aug-03 15:34N 49°47' W 003°39'1413.8
2016-Aug-03 14:33N 49°53' W 003°20'1413.9
2016-Aug-03 13:34N 49°58' W 002°59'1514.3
2016-Aug-03 12:31N 50°01' W 002°37'5513.5
2016-Aug-03 08:27N 49°51' W 001°13'1213.0
2016-Aug-03 07:33N 49°46' W 000°57'1414.0
2016-Aug-03 06:34N 49°40' W 000°37'2914.7
2016-Aug-03 04:34N 49°29' E 000°05'4 3.5
2016-Aug-03 03:33N 49°27' E 000°10'0 0.0
2016-Aug-03 02:33N 49°27' E 000°10'0 0.0
2016-Aug-03 01:33N 49°27' E 000°10'0 0.0
2016-Aug-03 00:33N 49°27' E 000°10'0 0.0
2016-Aug-02 23:33N 49°27' E 000°10'0 0.0
2016-Aug-02 22:30N 49°27' E 000°10'0 0.0
2016-Aug-02 21:33N 49°27' E 000°10'0 0.0
2016-Aug-02 20:33N 49°27' E 000°10'0 0.0
2016-Aug-02 19:33N 49°27' E 000°10'0 0.0
2016-Aug-02 18:33N 49°27' E 000°10'0 0.0
2016-Aug-02 17:33N 49°27' E 000°10'0 0.0
2016-Aug-02 16:33N 49°27' E 000°10'0 0.0
2016-Aug-02 15:33N 49°27' E 000°10'2 2.5
2016-Aug-02 14:33N 49°28' E 000°06'1312.5
2016-Aug-02 13:33N 49°33' W 000°11'2 2.2
2016-Aug-02 12:33N 49°35' W 000°13'1 0.9
2016-Aug-02 11:33N 49°34' W 000°14'1615.7
2016-Aug-02 10:33N 49°50' W 000°12'1919.4
2016-Aug-02 09:33N 50°09' W 000°12'1817.9
2016-Aug-02 08:33N 50°26' W 000°03'1818.2
2016-Aug-02 07:33N 50°32' E 000°24'2418.2
2016-Aug-02 06:14N 50°45' E 000°56'3219.3
2016-Aug-02 04:34N 51°06' E 001°35'2019.5
2016-Aug-02 03:34N 51°22' E 001°54'10 9.5
2016-Aug-02 02:33N 51°24' E 002°09'1616.2
2016-Aug-02 01:34N 51°23' E 002°35'1514.8
2016-Aug-02 00:33N 51°23' E 002°59'1615.8
2016-Aug-01 23:33N 51°25' E 003°24'1211.7
2016-Aug-01 22:34N 51°24' E 003°43'9 9.3
2016-Aug-01 21:33N 51°25' E 003°58'8 7.8
2016-Aug-01 20:33N 51°23' E 004°10'7 6.4
2016-Aug-01 19:30N 51°17' E 004°16'0 0.0
2016-Aug-01 18:33N 51°17' E 004°16'0 0.0
2016-Aug-01 17:30N 51°17' E 004°16'0 0.0
2016-Aug-01 16:27N 51°17' E 004°16'0 0.0
2016-Aug-01 15:30N 51°17' E 004°16'0 0.0
2016-Aug-01 14:33N 51°17' E 004°16'0 0.0
2016-Aug-01 13:33N 51°17' E 004°16'0 0.0
2016-Aug-01 12:33N 51°17' E 004°16'0 0.0
2016-Aug-01 11:33N 51°17' E 004°16'0 0.0
2016-Aug-01 10:30N 51°17' E 004°16'0 0.0
2016-Aug-01 09:30N 51°17' E 004°16'4 4.3
2016-Aug-01 08:34N 51°21' E 004°14'1110.8
2016-Aug-01 07:34N 51°25' E 003°58'2010.0
2016-Aug-01 05:34N 51°25' E 003°26'1413.6
2016-Aug-01 04:33N 51°24' E 003°04'1313.4
2016-Aug-01 03:33N 51°37' E 003°10'1110.9
2016-Aug-01 02:33N 51°48' E 003°11'2 1.8
2016-Aug-01 01:34N 51°50' E 003°09'0 0.4
2016-Aug-01 00:33N 51°50' E 003°09'1 1.4
2016-Jul-31 23:34N 51°49' E 003°08'1 1.3
2016-Jul-31 22:32N 51°48' E 003°10'1 1.1
2016-Jul-31 21:34N 51°47' E 003°10'1 0.8
2016-Jul-31 20:33N 51°48' E 003°09'7114.2
2016-Jul-31 15:32N 52°53' E 003°54'5317.7
2016-Jul-31 12:33N 53°32' E 004°53'1918.6
2016-Jul-31 11:33N 53°38' E 005°23'1918.9
2016-Jul-31 10:34N 53°45' E 005°52'1918.8
2016-Jul-31 09:34N 53°50' E 006°22'1818.1
2016-Jul-31 08:33N 53°55' E 006°52'1817.6
2016-Jul-31 07:33N 53°59' E 007°22'1717.0
2016-Jul-31 06:33N 54°02' E 007°50'1615.4
2016-Jul-31 05:33N 54°00' E 008°16'1616.3
2016-Jul-31 04:33N 53°54' E 008°42'1616.0
2016-Jul-31 03:33N 53°53' E 009°09'1414.2
2016-Jul-31 02:34N 53°44' E 009°27'1313.5
2016-Jul-31 01:34N 53°34' E 009°43'7 7.2
2016-Jul-31 00:32N 53°32' E 009°55'0 0.0
2016-Jul-30 22:32N 53°32' E 009°55'0 0.0
2016-Jul-30 21:32N 53°32' E 009°55'0 0.0
2016-Jul-30 20:32N 53°32' E 009°55'0 0.0
2016-Jul-30 19:32N 53°32' E 009°55'0 0.0
2016-Jul-30 18:32N 53°32' E 009°55'0 0.0
2016-Jul-30 17:32N 53°32' E 009°55'0 0.0
2016-Jul-30 16:32N 53°32' E 009°55'0 0.0
2016-Jul-30 15:32N 53°32' E 009°55'0 0.0
2016-Jul-30 14:32N 53°32' E 009°55'0 0.0
2016-Jul-30 13:32N 53°32' E 009°55'0 0.0
2016-Jul-30 12:32N 53°32' E 009°55'0 0.0
2016-Jul-30 11:32N 53°32' E 009°55'0 0.0
2016-Jul-30 10:32N 53°32' E 009°55'0 0.0
2016-Jul-30 09:32N 53°32' E 009°55'0 0.0
2016-Jul-30 08:32N 53°32' E 009°55'0 0.0
2016-Jul-30 07:32N 53°32' E 009°55'0 0.0
2016-Jul-30 06:32N 53°32' E 009°55'0 0.0
2016-Jul-30 05:32N 53°32' E 009°55'0 0.0
2016-Jul-30 04:32N 53°32' E 009°55'1 0.7
2016-Jul-30 03:33N 53°32' E 009°54'8 8.0
2016-Jul-30 02:34N 53°34' E 009°41'1111.5
2016-Jul-30 01:34N 53°43' E 009°28'1312.6
2016-Jul-30 00:33N 53°53' E 009°15'1212.1
2016-Jul-29 23:33N 53°51' E 008°55'1312.5
2016-Jul-29 22:30N 53°58' E 008°36'1414.9
2016-Jul-29 21:33N 53°60' E 008°12'1313.1
2016-Jul-29 20:33N 53°57' E 007°50'1615.9
2016-Jul-29 19:34N 53°53' E 007°24'1615.9
2016-Jul-29 18:33N 53°49' E 006°58'1615.9
2016-Jul-29 17:33N 53°46' E 006°32'1616.0
2016-Jul-29 16:33N 53°42' E 006°06'1616.3
2016-Jul-29 15:33N 53°37' E 005°39'2019.9
2016-Jul-29 14:34N 53°30' E 005°08'1919.4
2016-Jul-29 13:33N 53°19' E 004°41'2020.1
2016-Jul-29 12:33N 53°02' E 004°25'2019.9
2016-Jul-29 11:33N 52°45' E 004°08'1919.3
2016-Jul-29 10:34N 52°27' E 003°54'1918.7
2016-Jul-29 09:34N 52°09' E 003°55'1212.4
2016-Jul-29 08:33N 51°59' E 004°07'10 9.8
2016-Jul-29 07:33N 51°54' E 004°20'4 3.5
2016-Jul-29 06:32N 51°54' E 004°26'0 0.0
2016-Jul-29 05:32N 51°54' E 004°26'0 0.0
2016-Jul-29 04:32N 51°54' E 004°26'0 0.0
2016-Jul-29 03:32N 51°54' E 004°26'0 0.0
2016-Jul-29 02:32N 51°54' E 004°26'0 0.0
2016-Jul-29 01:32N 51°54' E 004°26'0 0.0
2016-Jul-29 00:32N 51°54' E 004°26'0 0.0
2016-Jul-28 23:32N 51°54' E 004°26'0 0.0
2016-Jul-28 22:32N 51°54' E 004°26'0 0.0
2016-Jul-28 21:32N 51°54' E 004°26'0 0.0
2016-Jul-28 20:31N 51°54' E 004°26'0 0.0
2016-Jul-28 19:31N 51°54' E 004°26'0 0.0
2016-Jul-28 18:31N 51°54' E 004°26'0 0.0
2016-Jul-28 17:31N 51°54' E 004°26'0 0.0
2016-Jul-28 16:31N 51°54' E 004°26'0 0.0
2016-Jul-28 15:31N 51°54' E 004°26'0 0.0
2016-Jul-28 14:31N 51°54' E 004°26'0 0.0
2016-Jul-28 13:31N 51°54' E 004°26'0 0.0
2016-Jul-28 12:31N 51°54' E 004°26'0 0.0
2016-Jul-28 11:31N 51°54' E 004°26'0 0.0
2016-Jul-28 10:31N 51°54' E 004°26'0 0.0
2016-Jul-28 09:31N 51°54' E 004°26'0 0.0
2016-Jul-28 08:31N 51°54' E 004°26'0 0.0
2016-Jul-28 07:28N 51°54' E 004°26'0 0.0
2016-Jul-28 06:31N 51°54' E 004°26'0 0.0
2016-Jul-28 05:31N 51°54' E 004°26'0 0.0
2016-Jul-28 04:31N 51°54' E 004°26'1 1.2
2016-Jul-28 03:34N 51°54' E 004°24'8 8.0
2016-Jul-28 02:34N 51°56' E 004°12'9 9.3
2016-Jul-28 01:34N 52°00' E 003°58'10 9.7
2016-Jul-28 00:34N 51°58' E 003°43'1110.5
2016-Jul-27 23:33N 51°56' E 003°26'1110.4
2016-Jul-27 22:30N 51°52' E 003°09'  

Dump ship's entire track history